Regional Weather Roundup
Issued by NWS

Home | Current Version | Previous Version | Graphics & Text | Print | Product List | Glossary On
Versions: 1 2 3 4 5 6 7 8 9 10 11 12 13 14 15 16 17 18 19 20 21 22 23 24 25 26 27 28 29 30 31 32 33 34 35 36 37 38 39 40 41 42 43 44 45 46 47 48 49 50
067
ASUS43 KBIS 232010
RWRND

NORTH DAKOTA REGIONAL WEATHER ROUNDUP
NATIONAL WEATHER SERVICE BISMARCK ND
300 PM CDT THU MAR 23 2017

NOTE: "FAIR" INDICATES FEW OR NO CLOUDS BELOW 12,000 FEET WITH NO
SIGNIFICANT WEATHER AND/OR OBSTRUCTIONS TO VISIBILITY.


NDZ001>003-009>011-017-232100-
NORTHWEST NORTH DAKOTA

CITY           SKY/WX    TMP DP  RH WIND       PRES   REMARKS
WILLISTON      CLOUDY    55  38  52 N7        29.75F
MINOT          FAIR      44  35  70 N9        29.75R
MINOT AFB      CLOUDY    40  34  79 N10       29.74S
$$

NDZ018>021-031>035-040>046-232100-
SOUTHWEST NORTH DAKOTA

CITY           SKY/WX    TMP DP  RH WIND       PRES   REMARKS
BISMARCK       LGT RAIN  40  37  89 NW14      29.74R
DICKINSON      CLOUDY    49  34  56 E8        29.74R
GARRISON         N/A     40  32  73 W6        29.74S
HETTINGER ARPT LGT RAIN  46  43  89 N18       29.76F
$$

NDZ004>008-012>016-024-026-027-054-232100-
NORTHEAST NORTH DAKOTA

CITY           SKY/WX    TMP DP  RH WIND       PRES   REMARKS
GRAND FORKS    RAIN      35  35 100 SE7       29.80F FOG
GRND FRKS AFB  LGT RAIN  35  34  99 S14       29.79F
DEVILS LAKE    CLOUDY    36  32  85 CALM      29.75F
$$

NDZ022-023-025-028>030-036>039-047>053-232100-
SOUTHEAST NORTH DAKOTA

CITY           SKY/WX    TMP DP  RH WIND       PRES   REMARKS
FARGO          CLOUDY    40  29  64 S17G24    29.81F
JAMESTOWN      PTSUNNY   44  39  82 VRB5      29.72F
$$





USA.gov is the U.S. government's official web portal to all federal, state and local government web resources and services.